Date String (YYYY-MM-DD hh:mm:ss) UTC,Instrument flags,absolute air pressure of the measurement (hPa),sample flow rate (lpm),inlet stack bypass flow (lpm),air temperature of the measurement (°C),ambient temperature measured by the external sensor (°C),aerosol sample conditioner tube jacket temperature (°C),OPC LED temperature (°C),internal box temperature (°C),relative humidity of the measurement (%),span deviation,mass concentration of particles derived from Lorenz-Mie calculation of OPC scattering (μg/m³),mass concentration of particles derived from Lorenz-Mie calculation of OPC scattering (μg/m³),mass concentration of particles derived from Lorenz-Mie calculation of OPC scattering (μg/m³)
DateTimeUTC,F1_M11,P_M11,Q1_M11,Q2_M11,T1_M11,T2_M11,T3_M11,T4_M11,T5_M11,U1_M11,ZSPAN_M11,X2_M11,X0_M11,X1_M11
2024-04-27 06:00:00,SystemResetWarning,0821.1,5.01,000.00,024.2,023.5,000.0,032.7,026.0,025.0,0000.0,0000.66,0001.29,0000.43
2024-04-27 06:01:00,SystemResetWarning,0821.1,5.00,000.00,024.2,023.5,000.0,032.7,026.0,025.1,0000.0,0000.62,0001.12,0000.43
2024-04-27 06:02:00,SystemResetWarning,0821.1,5.00,000.00,024.2,023.5,000.0,032.7,026.0,025.0,0000.0,0000.63,0001.11,0000.44
2024-04-27 06:03:00,SystemResetWarning,0821.1,5.00,000.00,024.2,023.5,000.0,032.7,026.0,025.0,0000.0,0000.64,0001.14,0000.43
2024-04-27 06:04:00,SystemResetWarning,0821.1,4.99,000.00,024.2,023.5,000.0,032.7,026.0,025.0,0000.0,0000.64,0001.25,0000.44
2024-04-27 06:05:00,SystemResetWarning,0821.0,5.00,000.00,024.2,023.5,000.0,032.7,026.1,025.1,0000.0,0000.65,0001.28,0000.44
2024-04-27 06:06:00,SystemResetWarning,0821.0,5.01,000.00,024.2,023.5,000.0,032.7,026.0,025.2,0000.0,0000.63,0001.57,0000.44
2024-04-27 06:07:00,SystemResetWarning,0821.1,5.01,000.00,024.2,023.5,000.0,032.7,026.1,025.2,0000.0,0000.65,0002.33,0000.45
2024-04-27 06:08:00,SystemResetWarning,0821.1,5.00,000.00,024.2,023.5,000.0,032.7,026.0,025.1,0000.0,0000.65,0002.27,0000.45
2024-04-27 06:09:00,SystemResetWarning,0821.3,5.00,000.00,024.2,023.5,000.0,032.7,026.1,025.1,0000.0,0000.62,0002.14,0000.46
2024-04-27 06:10:00,SystemResetWarning,0821.4,5.00,000.00,024.2,023.5,000.0,032.7,026.0,025.3,0000.0,0000.60,0002.11,0000.44
2024-04-27 06:11:00,SystemResetWarning,0821.2,5.00,000.00,024.2,023.5,000.0,032.7,026.0,025.2,0000.0,0000.58,0002.05,0000.43
2024-04-27 06:12:00,SystemResetWarning,0821.5,4.99,000.00,024.2,023.5,000.0,032.7,026.0,025.3,0000.0,0000.57,0002.02,0000.43
2024-04-27 06:13:00,SystemResetWarning,0821.3,5.00,000.00,024.2,023.5,000.0,032.7,026.0,025.3,0000.0,0000.58,0002.03,0000.43
2024-04-27 06:14:00,SystemResetWarning,0821.4,4.99,000.00,024.2,023.5,000.0,032.7,026.0,025.4,0000.0,0000.60,0002.07,0000.43
2024-04-27 06:15:00,SystemResetWarning,0821.1,5.01,000.00,024.2,023.5,000.0,032.7,026.0,025.4,0000.0,0000.60,0002.13,0000.42
2024-04-27 06:16:00,SystemResetWarning,0821.1,5.01,000.00,024.2,023.5,000.0,032.7,026.0,025.4,0000.0,0000.60,0002.14,0000.41
2024-04-27 06:17:00,SystemResetWarning,0821.1,5.01,000.00,024.2,023.5,000.0,032.7,026.0,025.5,0000.0,0000.60,0001.72,0000.40
2024-04-27 06:18:00,SystemResetWarning,0821.2,5.00,000.00,024.2,023.5,000.0,032.7,026.0,025.4,0000.0,0000.57,0001.01,0000.39
2024-04-27 06:19:00,SystemResetWarning,0821.2,4.99,000.00,024.2,023.5,000.0,032.7,026.0,025.5,0000.0,0000.61,0001.16,0000.38
2024-04-27 06:20:00,SystemResetWarning,0821.2,4.99,000.00,024.2,023.5,000.0,032.7,026.0,025.5,0000.0,0000.60,0001.18,0000.38
2024-04-27 06:21:00,SystemResetWarning,0821.2,5.00,000.00,024.2,023.5,000.0,032.7,026.0,025.5,0000.0,0000.60,0001.18,0000.38
2024-04-27 06:22:00,SystemResetWarning,0821.2,5.00,000.00,024.2,023.5,000.0,032.7,026.0,025.6,0000.0,0000.61,0001.20,0000.39
2024-04-27 06:23:00,SystemResetWarning,0821.1,5.01,000.00,024.2,023.5,000.0,032.7,026.0,025.7,0000.0,0000.63,0001.25,0000.39
2024-04-27 06:24:00,SystemResetWarning,0821.1,4.99,000.00,024.2,023.5,000.0,032.7,026.0,025.9,0000.0,0000.62,0001.23,0000.39
2024-04-27 06:25:00,SystemResetWarning,0821.1,4.99,000.00,024.2,023.5,000.0,032.7,026.0,026.2,0000.0,0000.60,0001.18,0000.39
2024-04-27 06:26:00,SystemResetWarning,0821.3,4.99,000.00,024.2,023.5,000.0,032.7,026.0,025.8,0000.0,0000.57,0001.00,0000.39
2024-04-27 06:27:00,SystemResetWarning,0821.1,5.00,000.00,024.2,023.5,000.0,032.7,026.0,025.7,0000.0,0000.57,0000.99,0000.40
2024-04-27 06:28:00,SystemResetWarning,0821.1,5.00,000.00,024.2,023.5,000.0,032.7,026.0,025.6,0000.0,0000.58,0001.02,0000.40
2024-04-27 06:29:00,SystemResetWarning,0821.1,5.01,000.00,024.2,023.5,000.0,032.7,026.0,025.7,0000.0,0000.60,0001.06,0000.40
2024-04-27 06:30:00,SystemResetWarning,0821.2,4.99,000.00,024.2,023.5,000.0,032.7,026.0,025.6,0000.0,0000.59,0000.97,0000.40
2024-04-27 06:31:00,SystemResetWarning,0821.2,5.00,000.00,024.2,023.5,000.0,032.7,026.0,025.8,0000.0,0000.58,0001.02,0000.41
2024-04-27 06:32:00,SystemResetWarning,0821.2,5.01,000.00,024.2,023.5,000.0,032.7,026.0,025.9,0000.0,0000.58,0001.03,0000.41
2024-04-27 06:33:00,SystemResetWarning,0821.2,5.00,000.00,024.2,023.5,000.0,032.7,026.1,026.0,0000.0,0000.59,0001.03,0000.40
2024-04-27 06:34:00,SystemResetWarning,0821.2,5.00,000.00,024.2,023.5,000.0,032.7,026.0,026.1,0000.0,0000.57,0001.00,0000.40
2024-04-27 06:35:00,SystemResetWarning,0821.2,5.00,000.00,024.2,023.5,000.0,032.7,026.1,026.0,0000.0,0000.60,0001.07,0000.40
2024-04-27 06:36:00,SystemResetWarning,0821.2,5.00,000.00,024.2,023.5,000.0,032.7,026.1,026.1,0000.0,0000.62,0001.12,0000.41
2024-04-27 06:37:00,SystemResetWarning,0821.2,5.00,000.00,024.2,023.6,000.0,032.7,026.1,026.1,0000.0,0000.62,0001.15,0000.40
2024-04-27 06:38:00,SystemResetWarning,0821.2,5.00,000.00,024.2,023.6,000.0,032.7,026.1,026.0,0000.0,0000.61,0001.12,0000.41
2024-04-27 06:39:00,SystemResetWarning,0821.2,5.00,000.00,024.2,023.5,000.0,032.7,026.1,025.9,0000.0,0000.60,0001.13,0000.41
2024-04-27 06:40:00,SystemResetWarning,0821.2,5.00,000.00,024.2,023.6,000.0,032.7,026.1,025.7,0000.0,0000.60,0001.17,0000.42
2024-04-27 06:41:00,SystemResetWarning,0821.2,5.00,000.00,024.2,023.6,000.0,032.7,026.1,025.6,0000.0,0000.60,0001.15,0000.42
2024-04-27 06:42:00,SystemResetWarning,0821.2,5.00,000.00,024.2,023.6,000.0,032.7,026.1,025.5,0000.0,0000.63,0001.20,0000.43
2024-04-27 06:43:00,SystemResetWarning,0821.2,5.00,000.00,024.2,023.6,000.0,032.7,026.1,025.5,0000.0,0000.68,0001.33,0000.45
2024-04-27 06:44:00,SystemResetWarning,0821.2,4.99,000.00,024.2,023.6,000.0,032.7,026.1,025.5,0000.0,0000.70,0001.34,0000.46
2024-04-27 06:45:00,SystemResetWarning,0821.2,5.01,000.00,024.2,023.6,000.0,032.7,026.1,025.4,0000.0,0000.71,0001.38,0000.47
2024-04-27 06:46:00,SystemResetWarning,0821.1,5.01,000.00,024.2,023.6,000.0,032.7,026.1,025.3,0000.0,0000.71,0001.38,0000.47
2024-04-27 06:47:00,SystemResetWarning,0821.1,5.00,000.00,024.2,023.6,000.0,032.7,026.1,025.4,0000.0,0000.70,0001.36,0000.47
2024-04-27 06:48:00,SystemResetWarning,0821.2,4.99,000.00,024.2,023.6,000.0,032.7,026.1,025.4,0000.0,0000.72,0001.49,0000.48
2024-04-27 06:49:00,SystemResetWarning,0821.2,5.00,000.00,024.2,023.6,000.0,032.8,026.1,025.5,0000.0,0000.74,0001.52,0000.49
2024-04-27 06:50:00,SystemResetWarning,0821.1,5.00,000.00,024.2,023.6,000.0,032.8,026.1,025.6,0000.0,0000.75,0001.51,0000.49
2024-04-27 06:51:00,SystemResetWarning,0821.1,4.98,000.00,024.2,023.6,000.0,032.8,026.1,025.7,0000.0,0000.75,0001.43,0000.49
2024-04-27 06:52:00,SystemResetWarning,0821.1,5.00,000.00,024.2,023.6,000.0,032.8,026.1,025.9,0000.0,0000.75,0001.42,0000.49
2024-04-27 06:53:00,SystemResetWarning,0821.1,5.00,000.00,024.2,023.6,000.0,032.8,026.1,025.8,0000.0,0000.76,0001.42,0000.49
2024-04-27 06:54:00,SystemResetWarning,0821.1,5.00,000.00,024.2,023.6,000.0,032.8,026.1,025.9,0000.0,0000.73,0001.32,0000.48
2024-04-27 06:55:00,SystemResetWarning,0821.1,5.00,000.00,024.2,023.6,000.0,032.8,026.1,026.0,0000.0,0000.73,0001.33,0000.48
2024-04-27 06:56:00,SystemResetWarning,0821.2,4.99,000.00,024.2,023.6,000.0,032.8,026.1,026.1,0000.0,0000.73,0001.36,0000.48
2024-04-27 06:57:00,SystemResetWarning,0821.2,5.00,000.00,024.2,023.6,000.0,032.8,026.1,026.1,0000.0,0000.75,0001.39,0000.49
2024-04-27 06:58:00,SystemResetWarning,0821.2,5.00,000.00,024.2,023.6,000.0,032.8,026.1,026.2,0000.0,0000.78,0001.47,0000.49
2024-04-27 06:59:00,SystemResetWarning,0821.2,5.00,000.00,024.2,023.6,000.0,032.8,026.1,026.2,0000.0,0000.79,0001.37,0000.49
